Content
SEND FEEDBACK

Daily
Averages
Monthly
Summary
United States of America

MCCLOUD, CALIFORNIA


Home > North America > United States > California
Elevation: 3339 feet     Latitude: 41 15N     Longitude: 122 08W

WEATHER
 
SELECT A DAY
Number of Records: 231,246;   Date Range: 1/1/95 - 7/20/14
 
SHARE

PRINT THIS DATA

[ ← Previous Day ]
WEATHER ALMANAC - NOVEMBER 5, 2013
[ Next Day → ]
[ °C ]   °F
Weather ElementAverageHighLow
Temperature41.5 °F55 °F (1:56 pm)33.1 °F (2:56 am)
Dewpoint33 °F37.9 °F (1:56 pm)26.1 °F (3:56 am)
Humidity72.9 %89 % (9:56 pm)53 % (1:56 pm)
Barometer30.28 in30.34 in (8:56 am)30.20 in (1:56 pm)
Wind Speed2.3 mph6.9 mph (2:56 pm)
Weather ElementAverage
Visibility9.3 mi
Wind DirectionNNE (8.6 °)

Weather ElementTotal
Precipitation---
Heating Degree Days21 (Base 65)
Averaged from 21 records on November 5, 2013
WEATHER CONDITIONS BREAKOUT
WIND DIRECTION BREAKOUT
WEATHER BY HOUR - NOVEMBER 5, 2013
[ °C ]   °F
Local TimeTemperatureDewpointHumidityBarometerVisibilityWind DirectionWind SpeedGust SpeedPrecipitationEventsConditions
1:56 AM34.0 °F27.0 °F75 %30.27 in10.0 miCalmPartly Cloudy
2:56 AM33.1 °F27.0 °F78 %30.28 in10.0 miCalmClear
3:56 AM33.1 °F26.1 °F75 %30.29 in10.0 miCalmMostly Cloudy
4:56 AM34.0 °F28.9 °F82 %30.30 in10.0 miCalm0.00 inOvercast
5:56 AM37.0 °F30.0 °F76 %30.30 in10.0 miCalmOvercast
6:56 AM36.0 °F30.9 °F82 %30.31 in8.0 miCalmOvercast
7:56 AM41.0 °F32.0 °F70 %30.33 in10.0 miCalmOvercast
8:56 AM44.1 °F35.1 °F71 %30.34 in10.0 miCalm0.00 inRainLight Rain
9:56 AM46.9 °F35.1 °F63 %30.33 in10.0 miCalm0.00 inOvercast
10:56 AM48.9 °F36.0 °F61 %30.33 in10.0 miVariable3.5 mphOvercast
1:56 PM55.0 °F37.9 °F53 %30.20 in10.0 miVariable5.8 mphPartly Cloudy
2:56 PM55.0 °F37.9 °F53 %30.22 in10.0 miVariable6.9 mphClear
3:56 PM51.1 °F37.0 °F59 %30.22 in10.0 miVariable5.8 mphClear
4:56 PM48.0 °F36.0 °F63 %30.22 in10.0 miVariable5.8 mphClear
5:56 PM45.0 °F36.0 °F71 %30.25 in10.0 miVariable4.6 mphClear
6:56 PM44.1 °F36.0 °F73 %30.26 in10.0 miCalmScattered Clouds
7:56 PM39.9 °F34.0 °F79 %30.27 in10.0 miNE (40°)3.5 mphClear
8:56 PM37.9 °F33.1 °F83 %30.28 in9.0 miNE (50°)4.6 mphClear
9:56 PM36.0 °F33.1 °F89 %30.29 in7.0 miCalmClear
10:56 PM35.1 °F32.0 °F89 %30.30 in7.0 miNE (40°)3.5 mphClear
11:56 PM36.0 °F32.0 °F86 %30.31 in5.0 miNE (50°)3.5 mphClear
Hourly data recorded from KMHS, located miles away from McCloud, California







STORIES FROM OUR PARTNERS